Le nostre stazioni meteo in Italia

Pubblicità
Il mio iltempo24.it
Dunstaffnage, Gran Bretagna (99006): Temperatura & dewpoint: 13.06.2019 00:00:00 - 19.06.2019 00:00:00 (BST)Dunstaffnage, Gran Bretagna (99006): Temperatura -20cm: 13.06.2019 00:00:00 - 19.06.2019 00:00:00 (BST)Dunstaffnage, Gran Bretagna (99006): velocità del vento & gusts: 13.06.2019 00:00:00 - 19.06.2019 00:00:00 (BST)Dunstaffnage, Gran Bretagna (99006): direzione del vento: 13.06.2019 00:00:00 - 19.06.2019 00:00:00 (BST)Dunstaffnage, Gran Bretagna (99006): precipitazioni: 13.06.2019 00:00:00 - 19.06.2019 00:00:00 (BST)
Data & Tempo tt [°C] td [°C] tt -20cm [°C] ff [km/h] ff [kn] fx [km/h] fx [kn] dd rr [mm]
19.06.2019 00:00:00 11,7 9,8 - 15 8 - - S 0,0
18.06.2019 23:00:00 12,2 10,0 - 13 7 - - S 0,0
18.06.2019 22:00:00 12,2 10,3 - 15 8 - - S 0,0
18.06.2019 21:00:00 12,3 10,3 - 11 6 - - SSO 0,0
18.06.2019 20:00:00 13,1 10,5 - 13 7 - - OSO 0,0
18.06.2019 19:00:00 13,1 10,2 - 11 6 - - SO 0,0
18.06.2019 18:00:00 13,6 10,8 - 16 9 - - SO 0,0
18.06.2019 17:00:00 13,3 10,3 - 18 10 - - SO 0,0
18.06.2019 16:00:00 14,1 9,9 - 18 10 - - SO 0,0
18.06.2019 15:00:00 16,1 11,3 - 18 10 - - SO 0,0
18.06.2019 14:00:00 14,6 10,9 - 22 12 - - SO 0,0
18.06.2019 13:00:00 15,8 11,9 - 24 13 - - OSO 0,0
18.06.2019 12:00:00 14,8 11,1 - 22 12 - - SO 0,0
18.06.2019 11:00:00 12,1 10,1 - 21 11 - - SO 0,0
18.06.2019 10:00:00 11,9 10,7 13,9 18 10 - - SO 0,0
18.06.2019 09:00:00 10,8 9,8 - 15 8 - - SO 0,2
18.06.2019 08:00:00 10,5 9,7 - 21 11 - - SO 0,8
18.06.2019 07:00:00 10,2 9,2 - 11 6 - - SSO 3,0
18.06.2019 06:00:00 11,5 8,7 - 15 8 - - S 0,0
18.06.2019 05:00:00 11,4 9,0 - 11 6 - - S 0,0
18.06.2019 04:00:00 11,2 9,0 - 13 7 - - S 0,0
18.06.2019 03:00:00 11,4 8,8 - 16 9 - - S 0,0
18.06.2019 02:00:00 11,3 9,2 - 15 8 - - SSE 0,0
18.06.2019 01:00:00 11,2 9,1 - 9 5 - - S 0,0
18.06.2019 00:00:00 11,4 9,5 - 9 5 - - S 0,0
17.06.2019 23:00:00 11,5 9,5 - 9 5 - - S 0,0
17.06.2019 22:00:00 11,6 9,6 - 5 3 - - SSO 0,0
17.06.2019 21:00:00 12,6 10,0 - 13 7 - - SO 0,0
17.06.2019 20:00:00 13,1 9,8 - 16 9 - - SSO 0,0
17.06.2019 19:00:00 13,5 10,5 - 18 10 - - SO 0,0
17.06.2019 18:00:00 13,0 10,1 - 21 11 - - SO 0,0
17.06.2019 17:00:00 13,3 10,6 - 24 13 - - SO 0,0
17.06.2019 16:00:00 13,2 11,0 - 22 12 48 26 SO 0,2
17.06.2019 15:00:00 12,9 10,8 - 11 6 48 26 S 0,8
17.06.2019 14:00:00 15,0 8,9 - 21 11 - - SSO 0,0
17.06.2019 13:00:00 15,2 9,2 - 21 11 - - S 0,0
17.06.2019 12:00:00 14,2 10,0 - 24 13 - - S 0,0
17.06.2019 11:00:00 12,8 9,4 - 21 11 - - SSO 0,0
17.06.2019 10:00:00 12,4 9,7 14,4 16 9 - - S 0,0
17.06.2019 09:00:00 12,6 10,5 - 13 7 - - S 0,0
17.06.2019 08:00:00 11,4 9,8 - 15 8 - - S 0,0
17.06.2019 07:00:00 10,9 9,6 - 15 8 - - S 0,0
17.06.2019 06:00:00 10,9 10,3 - 15 8 - - SO 0,6
17.06.2019 05:00:00 10,5 9,9 - 2 1 - - SSO 0,4
17.06.2019 04:00:00 10,6 9,9 - 2 1 - - ESE 4,0
17.06.2019 03:00:00 10,8 10,1 - 4 2 - - OSO 2,0
17.06.2019 02:00:00 11,1 10,1 - 4 2 - - OSO 0,2
17.06.2019 01:00:00 11,2 9,8 - 4 2 - - ESE 0,4
17.06.2019 00:00:00 12,0 9,1 - 9 5 - - ESE 0,2
16.06.2019 23:00:00 12,7 8,8 - 2 1 - - SSE 0,0
16.06.2019 22:00:00 13,3 7,7 - 4 2 - - SSE 0,0
16.06.2019 21:00:00 14,4 7,1 - 5 3 - - S 0,0
16.06.2019 20:00:00 15,5 6,6 - 9 5 - - SSE 0,0
16.06.2019 19:00:00 15,2 6,5 - 13 7 - - S 0,0
16.06.2019 18:00:00 15,8 6,9 - 11 6 - - SSO 0,0
16.06.2019 17:00:00 14,6 7,9 - 11 6 - - O 0,0
16.06.2019 16:00:00 15,5 9,9 - 9 5 - - OSO 0,0
16.06.2019 15:00:00 14,4 8,3 - 15 8 - - O 0,0
16.06.2019 14:00:00 15,2 9,5 - 9 5 - - ONO 0,0
16.06.2019 13:00:00 14,7 8,2 - 13 7 - - SO 0,0
16.06.2019 12:00:00 15,4 10,6 - 13 7 - - SO 0,0
16.06.2019 11:00:00 14,3 10,1 - 18 10 - - OSO 0,0
16.06.2019 10:00:00 13,1 11,5 13,7 11 6 - - O 0,0
16.06.2019 09:00:00 11,9 8,9 - 4 2 - - NNE 0,0
16.06.2019 08:00:00 11,5 9,3 - 4 2 - - SO 0,0
16.06.2019 07:00:00 10,1 9,0 - 4 2 - - S 0,0
16.06.2019 06:00:00 9,5 8,1 - 2 1 - - ONO 0,0
16.06.2019 05:00:00 9,3 8,5 - 11 6 - - SE 0,0
16.06.2019 04:00:00 9,3 8,4 - 9 5 - - SE 0,0
16.06.2019 03:00:00 9,7 8,8 - 8 4 - - SSO 0,0
16.06.2019 02:00:00 10,2 9,3 - 8 4 - - SSO 0,2
16.06.2019 01:00:00 10,8 9,4 - 11 6 - - SSO 0,2
16.06.2019 00:00:00 11,3 9,5 - 15 8 - - S 0,0
15.06.2019 23:00:00 12,2 9,5 - 13 7 - - E 0,0
15.06.2019 22:00:00 12,8 9,2 - 9 5 - - SE 0,0
15.06.2019 21:00:00 13,3 9,6 - 13 7 - - S 0,0
15.06.2019 20:00:00 13,9 10,7 - 8 4 - - SO 0,0
15.06.2019 19:00:00 15,7 11,7 - 4 2 - - O 0,0
15.06.2019 18:00:00 13,9 10,9 - 5 3 - - NO 0,2
15.06.2019 17:00:00 13,8 11,4 - 5 3 - - NNO 3,4
15.06.2019 16:00:00 12,2 10,2 - 13 7 - - OSO 2,6
15.06.2019 15:00:00 14,9 10,7 - 9 5 - - ENE 0,0
15.06.2019 14:00:00 13,9 10,6 - 15 8 - - ENE 0,0
15.06.2019 13:00:00 14,0 10,4 - 13 7 - - E 0,0
15.06.2019 12:00:00 13,7 10,1 - 11 6 - - ESE 0,2
15.06.2019 11:00:00 12,8 9,7 - 13 7 - - E 0,2
15.06.2019 10:00:00 12,4 9,7 13,7 21 11 - - E 0,0
15.06.2019 09:00:00 12,0 10,2 - 16 9 - - E 0,0
15.06.2019 08:00:00 11,3 10,2 - 13 7 - - E 0,0
15.06.2019 07:00:00 10,8 9,6 - 11 6 - - E 0,4
15.06.2019 06:00:00 10,5 9,4 - 13 7 - - E 0,4
15.06.2019 05:00:00 10,3 9,2 - 11 6 - - E 0,6
15.06.2019 04:00:00 10,3 9,1 - 18 10 - - E 0,6
15.06.2019 03:00:00 10,3 8,8 - 9 5 - - E 0,2
15.06.2019 02:00:00 10,6 8,7 - 13 7 - - E 0,2
15.06.2019 01:00:00 10,5 8,7 - 16 9 - - E 0,0
15.06.2019 00:00:00 10,2 8,8 - 13 7 - - E 0,2
14.06.2019 23:00:00 10,4 8,5 - 9 5 - - ENE 0,2
14.06.2019 22:00:00 11,5 7,3 - 5 3 - - S 0,0
14.06.2019 21:00:00 12,4 6,5 - 8 4 - - SE 0,0
14.06.2019 20:00:00 13,1 5,8 - 13 7 - - S 0,0
14.06.2019 19:00:00 14,1 8,0 - 11 6 - - OSO 0,0
14.06.2019 18:00:00 13,1 6,8 - 11 6 - - O 0,0
14.06.2019 17:00:00 13,2 7,0 - 11 6 - - S 0,0
14.06.2019 16:00:00 14,0 6,0 - 15 8 - - SSE 0,0
14.06.2019 15:00:00 13,6 6,7 - 18 10 - - S 0,0
14.06.2019 14:00:00 12,1 7,5 - 15 8 - - S 0,0
14.06.2019 13:00:00 14,2 8,1 - 16 9 - - S 0,0
14.06.2019 12:00:00 13,0 6,7 - 18 10 - - S 0,0
14.06.2019 11:00:00 10,3 7,8 - 9 5 - - S 0,0
14.06.2019 10:00:00 11,7 5,7 13,7 16 9 - - S 0,0
14.06.2019 09:00:00 10,3 6,9 - 13 7 - - SSO 0,0
14.06.2019 08:00:00 10,4 7,5 - 11 6 - - S 0,2
14.06.2019 07:00:00 9,3 8,0 - 9 5 - - SE 0,0
14.06.2019 06:00:00 9,0 7,4 - 8 4 - - SSE 0,0
14.06.2019 05:00:00 8,8 7,6 - 5 3 - - SE 0,0
14.06.2019 04:00:00 8,6 7,1 - 4 2 - - SSO 0,0
14.06.2019 03:00:00 8,5 7,2 - 4 2 - - S 0,0
14.06.2019 02:00:00 9,0 7,2 - 2 1 - - O 0,0
14.06.2019 01:00:00 8,9 7,1 - 5 3 - - OSO 0,0
14.06.2019 00:00:00 9,0 6,9 - 4 2 - - OSO 0,0
13.06.2019 23:00:00 10,3 6,8 - 4 2 - - O 0,0
13.06.2019 22:00:00 10,8 6,3 - 4 2 - - N 0,0
13.06.2019 21:00:00 11,3 5,7 - 8 4 - - NNO 0,0
13.06.2019 20:00:00 11,9 5,8 - 9 5 - - NNO 0,0
13.06.2019 19:00:00 11,6 6,0 - 11 6 - - NNO 0,0
13.06.2019 18:00:00 12,0 5,5 - 13 7 - - NNO 0,0
13.06.2019 17:00:00 12,1 5,2 - 9 5 - - N 0,0
13.06.2019 16:00:00 12,4 5,3 - 11 6 - - NNE 0,0
13.06.2019 15:00:00 13,0 5,5 - 13 7 - - NNE 0,0
13.06.2019 14:00:00 12,3 5,6 - 15 8 - - NNE 0,0
13.06.2019 13:00:00 13,1 5,3 - 13 7 - - N 0,0
13.06.2019 12:00:00 12,0 4,5 - 18 10 46 25 N 0,0
13.06.2019 11:00:00 11,0 4,4 - 18 10 - - N 0,0
13.06.2019 10:00:00 10,7 4,5 13,9 22 12 - - NNE 0,0
13.06.2019 09:00:00 10,5 3,5 - 21 11 46 25 NNE 0,0
13.06.2019 08:00:00 9,4 3,4 - 28 15 50 27 NNE 0,0
13.06.2019 07:00:00 8,8 3,8 - 29 16 50 27 NNE 0,0
13.06.2019 06:00:00 8,8 3,9 - 15 8 - - N 0,0
13.06.2019 05:00:00 8,7 4,1 - 18 10 - - NNE 0,0
13.06.2019 04:00:00 8,8 4,7 - 24 13 - - NNE 0,0
13.06.2019 03:00:00 8,9 5,6 - 21 11 46 25 N 0,0
13.06.2019 02:00:00 9,5 6,4 - 21 11 - - NNE 0,0
13.06.2019 01:00:00 9,8 6,3 - 22 12 - - NNE 0,0
13.06.2019 00:00:00 10,2 6,8 - 21 11 - - NNE 0,0

tt = Temperatura
td = dewpoint
tt -20cm = Temperatura -20cm
ff = velocità del vento
fx = gusts
dd = direzione del vento
rr = precipitazioni

Stazioni seguenti

WeatherPro
AMSI
MeteoEarth